BWA422 TTCP-TTPP

Flight info

Callsign BWA422
Flight time 0h 17m
Altitude 10000
Route DCT NAPKO DCT LEXOR DCT TALUS DCT
Aircraft B38M/M-SDE1FGHILORVWXY/HB1

Departure

Time 2026-04-24 19:44
Airport A.N.R. Robinson International Airport (TTCP)

Arrival

Time 2026-04-24 20:01
Airport Piarco International Airport (TTPP)
Time Latitude Longitude Altitude Speed Heading
2026-04-24 19:29 11.15184 -60.83946 59 ft 0 kts
2026-04-24 19:36 11.15166 -60.83947 59 ft 4 kts
2026-04-24 19:37 11.15139 -60.83945 59 ft 4 kts 347°
2026-04-24 19:37 11.15117 -60.83934 54 ft 4 kts 303°
2026-04-24 19:37 11.15113 -60.83924 59 ft 1 kts 274°
2026-04-24 19:40 11.15113 -60.83926 53 ft 1 kts 274°
2026-04-24 19:41 11.15115 -60.83945 59 ft 4 kts 274°
2026-04-24 19:41 11.15097 -60.83970 59 ft 5 kts 200°
2026-04-24 19:41 11.15052 -60.83981 59 ft 8 kts 210°
2026-04-24 19:41 11.15031 -60.84033 53 ft 9 kts 271°
2026-04-24 19:42 11.15035 -60.84102 53 ft 11 kts 272°
2026-04-24 19:42 11.15040 -60.84210 61 ft 20 kts 272°
2026-04-24 19:42 11.15006 -60.84355 53 ft 23 kts 255°
2026-04-24 19:42 11.15043 -60.84440 61 ft 10 kts 13°
2026-04-24 19:43 11.15055 -60.84380 54 ft 12 kts 97°
2026-04-24 19:43 11.15037 -60.84165 61 ft 58 kts 95°
2026-04-24 19:43 11.14994 -60.83570 60 ft 108 kts 94°
2026-04-24 19:43 11.14932 -60.82664 58 ft 147 kts 94°
2026-04-24 19:44 11.14857 -60.81571 262 ft 159 kts 95°
2026-04-24 19:44 11.14820 -60.80454 753 ft 160 kts 94°
2026-04-24 19:44 11.14782 -60.79292 1086 ft 167 kts 94°
2026-04-24 19:44 11.14423 -60.78237 1595 ft 161 kts 133°
2026-04-24 19:45 11.13389 -60.77699 2045 ft 182 kts 173°
2026-04-24 19:45 11.12078 -60.77991 2446 ft 211 kts 208°
2026-04-24 19:45 11.10971 -60.79121 2857 ft 242 kts 234°
2026-04-24 19:45 11.10130 -60.80702 3415 ft 263 kts 239°
2026-04-24 19:46 11.09172 -60.82360 4034 ft 279 kts 237°
2026-04-24 19:46 11.08190 -60.84061 5020 ft 280 kts 238°
2026-04-24 19:46 11.07204 -60.85786 5919 ft 283 kts 238°
2026-04-24 19:46 11.06209 -60.87537 6811 ft 287 kts 238°
2026-04-24 19:47 11.05207 -60.89305 7654 ft 290 kts 239°
2026-04-24 19:47 11.04195 -60.91093 8470 ft 294 kts 239°
2026-04-24 19:47 11.03173 -60.92903 9298 ft 297 kts 239°
2026-04-24 19:47 11.02135 -60.94741 9992 ft 302 kts 239°
2026-04-24 19:48 11.01087 -60.96593 10174 ft 301 kts 239°
2026-04-24 19:48 11.00026 -60.98470 10087 ft 314 kts 239°
2026-04-24 19:48 10.97895 -61.02239 10092 ft 301 kts 239°
2026-04-24 19:49 10.95782 -61.05973 10025 ft 315 kts 239°
2026-04-24 19:49 10.93660 -61.09729 10141 ft 302 kts 239°
2026-04-24 19:50 10.90483 -61.15339 10031 ft 296 kts 239°
2026-04-24 19:50 10.89464 -61.17139 9836 ft 290 kts 239°
2026-04-24 19:51 10.87491 -61.20619 9416 ft 280 kts 239°
2026-04-24 19:51 10.86524 -61.22327 9153 ft 278 kts 239°
2026-04-24 19:52 10.84612 -61.25697 8523 ft 276 kts 239°
2026-04-24 19:52 10.83660 -61.27377 8240 ft 272 kts 239°
2026-04-24 19:52 10.82718 -61.29043 7985 ft 270 kts 239°
2026-04-24 19:52 10.81783 -61.30693 7685 ft 268 kts 239°
2026-04-24 19:53 10.80837 -61.32359 7334 ft 275 kts 239°
2026-04-24 19:53 10.79875 -61.34054 6991 ft 278 kts 239°
2026-04-24 19:53 10.77930 -61.37482 6445 ft 279 kts 238°
2026-04-24 19:54 10.76952 -61.39208 6008 ft 284 kts 238°
2026-04-24 19:54 10.75968 -61.40943 5708 ft 282 kts 237°
2026-04-24 19:54 10.74992 -61.42662 5442 ft 280 kts 238°
2026-04-24 19:54 10.74022 -61.44366 5195 ft 277 kts 239°
2026-04-24 19:55 10.73385 -61.45491 4990 ft 278 kts 238°
2026-04-24 19:55 10.72106 -61.47743 4613 ft 269 kts 238°
2026-04-24 19:55 10.71192 -61.49351 4401 ft 259 kts 238°
2026-04-24 19:55 10.70266 -61.50867 4034 ft 246 kts 226°
2026-04-24 19:56 10.68914 -61.51769 4033 ft 221 kts 196°
2026-04-24 19:56 10.67406 -61.52057 3580 ft 223 kts 180°
2026-04-24 19:56 10.65854 -61.52138 3288 ft 224 kts 179°
2026-04-24 19:56 10.64305 -61.52189 3041 ft 221 kts 178°
2026-04-24 19:57 10.62788 -61.52214 2832 ft 216 kts 177°
2026-04-24 19:57 10.61309 -61.52160 2634 ft 210 kts 160°
2026-04-24 19:57 10.60119 -61.51396 2605 ft 204 kts 126°
2026-04-24 19:57 10.59551 -61.50089 2650 ft 205 kts 99°
2026-04-24 19:58 10.59474 -61.48638 2611 ft 206 kts 90°
2026-04-24 19:58 10.59492 -61.47169 2405 ft 203 kts 90°
2026-04-24 19:58 10.59499 -61.45756 2095 ft 198 kts 91°
2026-04-24 19:58 10.59504 -61.44383 1846 ft 188 kts 91°
2026-04-24 19:59 10.59508 -61.43128 1646 ft 165 kts 91°
2026-04-24 19:59 10.59510 -61.41989 1444 ft 159 kts 91°
2026-04-24 19:59 10.59515 -61.40873 1210 ft 156 kts 92°
2026-04-24 19:59 10.59518 -61.39761 1006 ft 159 kts 92°
2026-04-24 20:00 10.59519 -61.38637 763 ft 159 kts 93°
2026-04-24 20:00 10.59535 -61.37526 513 ft 152 kts 92°
2026-04-24 20:00 10.59531 -61.36468 303 ft 151 kts 91°
2026-04-24 20:00 10.59538 -61.35381 111 ft 155 kts 91°
2026-04-24 20:01 10.59533 -61.34329 53 ft 129 kts 90°
2026-04-24 20:01 10.59534 -61.33621 51 ft 76 kts 90°
2026-04-24 20:01 10.59535 -61.33148 49 ft 43 kts 90°
2026-04-24 20:01 10.59590 -61.32953 48 ft 26 kts 12°
2026-04-24 20:02 10.59697 -61.32966 47 ft 20 kts 321°
2026-04-24 20:02 10.59709 -61.33134 52 ft 20 kts 269°
2026-04-24 20:02 10.59708 -61.33284 52 ft 22 kts 269°
2026-04-24 20:02 10.59708 -61.33448 52 ft 24 kts 270°
2026-04-24 20:03 10.59707 -61.33627 52 ft 26 kts 270°
2026-04-24 20:03 10.59749 -61.33732 48 ft 17 kts 348°
2026-04-24 20:03 10.59835 -61.33787 46 ft 17 kts 272°
2026-04-24 20:03 10.59838 -61.33865 52 ft 6 kts 294°
2026-04-24 20:04 10.59871 -61.33865 50 ft 6 kts 16°
2026-04-24 20:04 10.59920 -61.33856 46 ft 9 kts
2026-04-24 20:04 10.59937 -61.33855 52 ft 0 kts